When you browse on this site, cookies collect data to enhance your experience and personalize the content and advertising you see.
Visit our Privacy Policy to learn more. By continuing to use the site, you agree to this use of cookies and data.
  • In United Kingdom
  • List of Countries
  • For 7 days
  • Water Temperature
  • Weather Map
  • Weather Widgets
  • user-avatar
    Login

    Hourly Weather Gölhisar

    Today, 20 October, Sunday

    Time Temperature Precipitation Wind Pressure Humidity
    00:00 +15°C° 0 mm 1 mps 676 mmHg 70%
    01:00 +15°C° 0 mm 1 mps 676 mmHg 70%
    02:00 +15°C° 0 mm 1 mps 676 mmHg 71%
    03:00 +14°C° 0 mm 1 mps 676 mmHg 72%
    04:00 +14°C° 0 mm 1 mps 676 mmHg 73%
    05:00 +14°C° 0 mm 1 mps 676 mmHg 75%
    06:00 +15°C° 0 mm 1 mps 676 mmHg 69%
    07:00 +18°C° 0 mm 1 mps 677 mmHg 63%
    08:00 +19°C° 0 mm 1 mps 677 mmHg 57%
    09:00 +20°C° 0 mm 1 mps 677 mmHg 49%
    10:00 +22°C° 0 mm 1 mps 678 mmHg 41%
    11:00 +23°C° 0 mm 1 mps 679 mmHg 33%
    12:00 +24°C° 0 mm 2 mps 678 mmHg 31%
    13:00 +24°C° 0 mm 2 mps 678 mmHg 29%
    14:00 +25°C° 0 mm 2 mps 677 mmHg 26%
    15:00 +24°C° 0 mm 2 mps 677 mmHg 30%
    16:00 +23°C° 0 mm 2 mps 677 mmHg 34%
    17:00 +21°C° 0 mm 2 mps 677 mmHg 38%
    18:00 +20°C° 0 mm 2 mps 677 mmHg 41%
    19:00 +19°C° 0 mm 2 mps 676 mmHg 44%
    20:00 +18°C° 0 mm 1 mps 676 mmHg 47%
    21:00 +18°C° 0 mm 1 mps 676 mmHg 48%
    22:00 +16°C° 0 mm 1 mps 676 mmHg 49%
    23:00 +16°C° 0 mm 1 mps 676 mmHg 51%

    Tomorrow, 21 October, Monday

    Time Temperature Precipitation Wind Pressure Humidity
    00:00 +15°C° 0 mm 1 mps 676 mmHg 53%
    01:00 +15°C° 0 mm 1 mps 675 mmHg 54%
    02:00 +14°C° 0 mm 1 mps 675 mmHg 56%
    03:00 +14°C° 0 mm 1 mps 675 mmHg 57%
    04:00 +14°C° 0 mm 1 mps 675 mmHg 58%
    05:00 +13°C° 0 mm 1 mps 675 mmHg 59%
    06:00 +15°C° 0 mm 1 mps 675 mmHg 54%
    07:00 +16°C° 0 mm 1 mps 675 mmHg 50%
    08:00 +19°C° 0 mm 1 mps 676 mmHg 45%
    09:00 +20°C° 0 mm 1 mps 676 mmHg 40%
    10:00 +20°C° 0 mm 2 mps 676 mmHg 34%
    11:00 +23°C° 0 mm 2 mps 677 mmHg 29%
    12:00 +23°C° 0 mm 2 mps 676 mmHg 27%
    13:00 +24°C° 0 mm 2 mps 676 mmHg 25%
    14:00 +24°C° 0 mm 3 mps 676 mmHg 23%
    15:00 +23°C° 0 mm 2 mps 675 mmHg 27%
    16:00 +21°C° 0 mm 2 mps 675 mmHg 30%
    17:00 +20°C° 0 mm 2 mps 674 mmHg 33%
    18:00 +19°C° 0 mm 2 mps 674 mmHg 36%
    19:00 +18°C° 0 mm 2 mps 674 mmHg 39%
    20:00 +16°C° 0 mm 2 mps 674 mmHg 42%
    21:00 +16°C° 0 mm 2 mps 674 mmHg 45%
    22:00 +16°C° 0 mm 2 mps 674 mmHg 48%
    23:00 +15°C° 0 mm 2 mps 674 mmHg 52%

    Day after tomorrow, 22 October, Tuesday

    Time Temperature Precipitation Wind Pressure Humidity
    00:00 +15°C° 0 mm 2 mps 673 mmHg 55%
    01:00 +14°C° 0 mm 2 mps 673 mmHg 59%
    02:00 +14°C° 0 mm 2 mps 673 mmHg 63%
    03:00 +14°C° 0 mm 2 mps 673 mmHg 65%
    04:00 +13°C° 0 mm 2 mps 673 mmHg 68%
    05:00 +13°C° 0 mm 2 mps 673 mmHg 71%
    06:00 +14°C° 0 mm 2 mps 673 mmHg 68%
    07:00 +15°C° 0 mm 2 mps 674 mmHg 65%
    08:00 +16°C° 0 mm 2 mps 674 mmHg 62%
    09:00 +17°C° 0 mm 3 mps 674 mmHg 56%
    10:00 +19°C° 0 mm 3 mps 675 mmHg 51%
    11:00 +20°C° 0 mm 4 mps 675 mmHg 46%
    12:00 +21°C° 0 mm 4 mps 675 mmHg 43%
    13:00 +21°C° 0 mm 3 mps 675 mmHg 40%
    14:00 +22°C° 0 mm 3 mps 674 mmHg 38%
    15:00 +21°C° 0 mm 3 mps 674 mmHg 41%
    16:00 +20°C° 0 mm 3 mps 674 mmHg 44%
    17:00 +20°C° 0 mm 2 mps 674 mmHg 47%
    18:00 +19°C° 0.1 mm 2 mps 674 mmHg 51%
    19:00 +18°C° 0.1 mm 2 mps 673 mmHg 56%
    20:00 +18°C° 0.1 mm 1 mps 673 mmHg 60%
    21:00 +16°C° 0 mm 2 mps 673 mmHg 62%
    22:00 +16°C° 0 mm 2 mps 673 mmHg 64%
    23:00 +15°C° 0 mm 2 mps 673 mmHg 66%

    23 October, Wednesday

    Time Temperature Precipitation Wind Pressure Humidity
    00:00 +15°C° 0 mm 2 mps 673 mmHg 67%
    01:00 +15°C° 0 mm 2 mps 673 mmHg 68%
    02:00 +14°C° 0 mm 2 mps 672 mmHg 69%
    03:00 +14°C° 0 mm 2 mps 672 mmHg 70%
    04:00 +14°C° 0 mm 2 mps 672 mmHg 72%
    05:00 +13°C° 0 mm 2 mps 672 mmHg 73%
    06:00 +14°C° 0 mm 2 mps 672 mmHg 70%
    07:00 +15°C° 0 mm 2 mps 672 mmHg 67%
    08:00 +16°C° 0 mm 2 mps 673 mmHg 64%
    09:00 +17°C° 0 mm 3 mps 673 mmHg 60%
    10:00 +18°C° 0 mm 3 mps 673 mmHg 55%
    11:00 +19°C° 0 mm 4 mps 673 mmHg 51%
    12:00 +20°C° 0 mm 4 mps 673 mmHg 50%
    13:00 +20°C° 0 mm 4 mps 673 mmHg 50%
    14:00 +20°C° 0 mm 4 mps 673 mmHg 49%
    15:00 +19°C° 0.1 mm 3 mps 673 mmHg 53%
    16:00 +18°C° 0.1 mm 2 mps 673 mmHg 57%
    17:00 +18°C° 0.1 mm 2 mps 672 mmHg 60%
    18:00 +18°C° 0 mm 1 mps 672 mmHg 63%
    19:00 +16°C° 0 mm 1 mps 673 mmHg 67%
    20:00 +14°C° 0 mm 0 mps 673 mmHg 70%
    21:00 +15°C° 0 mm 1 mps 673 mmHg 71%
    22:00 +15°C° 0 mm 1 mps 673 mmHg 71%
    23:00 +14°C° 0 mm 1 mps 673 mmHg 72%

    24 October, Thursday

    Time Temperature Precipitation Wind Pressure Humidity
    00:00 +14°C° 0 mm 1 mps 672 mmHg 73%
    01:00 +14°C° 0 mm 1 mps 672 mmHg 74%
    02:00 +14°C° 0 mm 1 mps 672 mmHg 75%
    03:00 +13°C° 0 mm 1 mps 672 mmHg 76%
    04:00 +13°C° 0 mm 1 mps 672 mmHg 77%
    05:00 +13°C° 0 mm 1 mps 672 mmHg 78%
    06:00 +14°C° 0 mm 1 mps 672 mmHg 73%
    07:00 +15°C° 0 mm 1 mps 673 mmHg 68%
    08:00 +16°C° 0 mm 1 mps 673 mmHg 63%
    09:00 +19°C° 0 mm 1 mps 673 mmHg 57%
    10:00 +19°C° 0 mm 2 mps 673 mmHg 51%
    11:00 +21°C° 0 mm 2 mps 673 mmHg 46%
    12:00 +21°C° 0 mm 2 mps 673 mmHg 43%
    13:00 +23°C° 0 mm 2 mps 673 mmHg 41%
    14:00 +23°C° 0 mm 2 mps 673 mmHg 39%
    15:00 +21°C° 0 mm 2 mps 673 mmHg 42%
    16:00 +20°C° 0 mm 2 mps 673 mmHg 46%
    17:00 +20°C° 0 mm 2 mps 672 mmHg 49%
    18:00 +19°C° 0 mm 1 mps 672 mmHg 54%
    19:00 +18°C° 0 mm 1 mps 672 mmHg 60%
    20:00 +16°C° 0 mm 1 mps 672 mmHg 65%
    21:00 +15°C° 0 mm 1 mps 672 mmHg 66%
    22:00 +15°C° 0 mm 1 mps 672 mmHg 68%
    23:00 +13°C° 0 mm 0 mps 672 mmHg 69%

    25 October, Friday

    Time Temperature Precipitation Wind Pressure Humidity
    00:00 +14°C° 0 mm 1 mps 672 mmHg 69%
    01:00 +13°C° 0 mm 1 mps 671 mmHg 69%
    02:00 +13°C° 0 mm 1 mps 671 mmHg 70%
    03:00 +13°C° 0 mm 1 mps 671 mmHg 71%
    04:00 +12°C° 0 mm 1 mps 671 mmHg 72%
    05:00 +12°C° 0 mm 1 mps 671 mmHg 73%
    06:00 +14°C° 0 mm 1 mps 671 mmHg 67%
    07:00 +15°C° 0 mm 1 mps 672 mmHg 61%
    08:00 +18°C° 0 mm 1 mps 672 mmHg 54%
    09:00 +19°C° 0 mm 1 mps 673 mmHg 48%
    10:00 +20°C° 0 mm 1 mps 673 mmHg 41%
    11:00 +22°C° 0 mm 1 mps 673 mmHg 35%
    12:00 +22°C° 0 mm 1 mps 673 mmHg 32%
    13:00 +23°C° 0 mm 1 mps 673 mmHg 30%
    14:00 +24°C° 0 mm 1 mps 673 mmHg 27%
    15:00 +22°C° 0 mm 1 mps 673 mmHg 32%
    16:00 +21°C° 0 mm 1 mps 672 mmHg 37%
    17:00 +20°C° 0 mm 1 mps 672 mmHg 42%
    18:00 +19°C° 0 mm 1 mps 672 mmHg 48%
    19:00 +16°C° 0 mm 1 mps 672 mmHg 54%
    20:00 +14°C° 0 mm 0 mps 672 mmHg 60%
    21:00 +14°C° 0 mm 0 mps 672 mmHg 62%
    22:00 +13°C° 0 mm 0 mps 672 mmHg 63%
    23:00 +13°C° 0 mm 0 mps 672 mmHg 65%
    Show more